AWG4404 LROP-HESH

Flight info

Callsign AWG4404
Flight time 2h 42m
Altitude 35000
Route IDARU DCT RIXEN UG1 IST UG8 YAA UN617 IRGAK UM855 LEMDA UA16 TOMBI M855 RASDA A16 BLT DCT SISIK V603 ALSOB ALSOB1G
Aircraft A320/M-SDE3FGHIRWY/LB1

Departure

Time 2026-05-09 07:44
Airport Bucharest Henri Coandă International Airport (LROP)

Arrival

Time 2026-05-09 10:27
Airport Sharm El Sheikh International Airport (HESH)
Time Latitude Longitude Altitude Speed Heading
2026-05-09 07:16 44.57263 26.08042 323 ft 0 kts 354°
2026-05-09 07:16 44.57265 26.08042 322 ft 0 kts 354°
2026-05-09 07:35 44.57250 26.08044 322 ft 4 kts 354°
2026-05-09 07:36 44.57224 26.08048 337 ft 2 kts 354°
2026-05-09 07:36 44.57206 26.08048 343 ft 4 kts 47°
2026-05-09 07:36 44.57198 26.08018 309 ft 4 kts 84°
2026-05-09 07:36 44.57197 26.08001 316 ft 2 kts 84°
2026-05-09 07:40 44.57198 26.08021 321 ft 5 kts 84°
2026-05-09 07:40 44.57203 26.08094 322 ft 9 kts 84°
2026-05-09 07:40 44.57211 26.08192 322 ft 11 kts 84°
2026-05-09 07:40 44.57219 26.08300 322 ft 12 kts 84°
2026-05-09 07:41 44.57228 26.08417 322 ft 13 kts 84°
2026-05-09 07:41 44.57271 26.08499 322 ft 12 kts
2026-05-09 07:41 44.57353 26.08488 322 ft 12 kts 353°
2026-05-09 07:41 44.57432 26.08476 321 ft 11 kts 354°
2026-05-09 07:42 44.57504 26.08466 322 ft 10 kts 354°
2026-05-09 07:42 44.57565 26.08457 322 ft 8 kts 354°
2026-05-09 07:42 44.57614 26.08452 322 ft 6 kts 360°
2026-05-09 07:42 44.57662 26.08490 322 ft 9 kts 56°
2026-05-09 07:43 44.57675 26.08583 323 ft 12 kts 83°
2026-05-09 07:43 44.57703 26.08957 322 ft 72 kts 84°
2026-05-09 07:43 44.57778 26.09954 323 ft 135 kts 84°
2026-05-09 07:43 44.57896 26.11517 396 ft 181 kts 83°
2026-05-09 07:44 44.58039 26.13310 757 ft 189 kts 84°
2026-05-09 07:44 44.58196 26.15210 1211 ft 199 kts 84°
2026-05-09 07:44 44.58352 26.17158 1744 ft 203 kts 85°
2026-05-09 07:44 44.58505 26.19179 2021 ft 211 kts 84°
2026-05-09 07:45 44.58653 26.21237 2435 ft 213 kts 85°
2026-05-09 07:45 44.58799 26.23292 2941 ft 216 kts 85°
2026-05-09 07:45 44.58952 26.25409 3453 ft 220 kts 85°
2026-05-09 07:45 44.59111 26.27595 3961 ft 234 kts 85°
2026-05-09 07:46 44.59282 26.29948 4493 ft 248 kts 85°
2026-05-09 07:46 44.59461 26.32421 5008 ft 254 kts 84°
2026-05-09 07:46 44.59642 26.34904 5513 ft 256 kts 84°
2026-05-09 07:46 44.59820 26.37355 6010 ft 257 kts 85°
2026-05-09 07:47 44.60000 26.39863 6521 ft 259 kts 85°
2026-05-09 07:47 44.60174 26.42328 7002 ft 261 kts 85°
2026-05-09 07:47 44.60356 26.44930 7503 ft 263 kts 85°
2026-05-09 07:47 44.60535 26.47471 8016 ft 264 kts 85°
2026-05-09 07:48 44.60714 26.49978 8499 ft 266 kts 85°
2026-05-09 07:48 44.60893 26.52505 9000 ft 267 kts 85°
2026-05-09 07:48 44.61077 26.55108 9529 ft 269 kts 85°
2026-05-09 07:48 44.61259 26.57731 10047 ft 271 kts 85°
2026-05-09 07:49 44.61442 26.60381 10530 ft 273 kts 85°
2026-05-09 07:49 44.61627 26.63069 11018 ft 276 kts 85°
2026-05-09 07:49 44.61813 26.65755 11508 ft 279 kts 85°
2026-05-09 07:49 44.62004 26.68511 12009 ft 288 kts 85°
2026-05-09 07:50 44.62199 26.71349 12529 ft 296 kts 86°
2026-05-09 07:50 44.62331 26.73276 12875 ft 301 kts 86°
2026-05-09 07:50 44.62602 26.77224 13575 ft 311 kts 86°
2026-05-09 07:50 44.62812 26.80285 14079 ft 317 kts 86°
2026-05-09 07:51 44.62955 26.82379 14395 ft 321 kts 86°
2026-05-09 07:51 44.63165 26.85485 14870 ft 327 kts 86°
2026-05-09 07:51 44.63380 26.88701 15363 ft 332 kts 86°
2026-05-09 07:51 44.63412 26.91955 15855 ft 335 kts 98°
2026-05-09 07:52 44.62879 26.95135 16349 ft 338 kts 111°
2026-05-09 07:52 44.61786 26.98083 16863 ft 342 kts 125°
2026-05-09 07:52 44.60192 27.00577 17385 ft 345 kts 140°
2026-05-09 07:52 44.58212 27.02432 17905 ft 348 kts 152°
2026-05-09 07:53 44.56021 27.04013 18434 ft 351 kts 152°
2026-05-09 07:53 44.53867 27.05578 18897 ft 354 kts 152°
2026-05-09 07:53 44.51681 27.07172 19346 ft 357 kts 153°
2026-05-09 07:53 44.49434 27.08809 19594 ft 367 kts 153°
2026-05-09 07:54 44.47134 27.10483 19872 ft 375 kts 153°
2026-05-09 07:54 44.44798 27.12181 20135 ft 384 kts 153°
2026-05-09 07:54 44.42385 27.13934 20403 ft 392 kts 153°
2026-05-09 07:54 44.39947 27.15704 20683 ft 400 kts 153°
2026-05-09 07:55 44.37447 27.17520 20956 ft 408 kts 153°
2026-05-09 07:55 44.34910 27.19361 21232 ft 414 kts 153°
2026-05-09 07:55 44.32336 27.21226 21512 ft 420 kts 153°
2026-05-09 07:55 44.29716 27.23121 21793 ft 425 kts 154°
2026-05-09 07:56 44.27072 27.25026 22077 ft 429 kts 154°
2026-05-09 07:56 44.24416 27.26936 22365 ft 433 kts 154°
2026-05-09 07:56 44.21757 27.28847 22666 ft 436 kts 154°
2026-05-09 07:57 44.19319 27.30101 23022 ft 426 kts 169°
2026-05-09 07:57 44.16474 27.31291 23610 ft 427 kts 158°
2026-05-09 07:58 44.13947 27.33065 23854 ft 431 kts 151°
2026-05-09 07:58 44.11400 27.35298 24105 ft 435 kts 148°
2026-05-09 07:58 44.08863 27.37637 24350 ft 438 kts 148°
2026-05-09 07:58 44.06320 27.39873 24599 ft 440 kts 150°
2026-05-09 07:59 44.03661 27.42016 24863 ft 442 kts 152°
2026-05-09 07:59 44.00942 27.44030 25120 ft 444 kts 154°
2026-05-09 07:59 43.98177 27.45963 25383 ft 446 kts 154°
2026-05-09 07:59 43.95379 27.47870 25651 ft 447 kts 155°
2026-05-09 08:00 43.92539 27.49808 25918 ft 449 kts 154°
2026-05-09 08:00 43.89787 27.51710 26186 ft 450 kts 154°
2026-05-09 08:00 43.86996 27.53671 26459 ft 450 kts 154°
2026-05-09 08:00 43.84181 27.55668 26736 ft 451 kts 153°
2026-05-09 08:01 43.81378 27.57665 27012 ft 451 kts 153°
2026-05-09 08:01 43.78611 27.59640 27288 ft 452 kts 153°
2026-05-09 08:01 43.75844 27.61610 27572 ft 452 kts 153°
2026-05-09 08:01 43.73043 27.63596 27859 ft 452 kts 153°
2026-05-09 08:02 43.70220 27.65591 28155 ft 452 kts 153°
2026-05-09 08:02 43.67420 27.67567 28444 ft 452 kts 153°
2026-05-09 08:02 43.64620 27.69542 28732 ft 451 kts 153°
2026-05-09 08:02 43.61779 27.71544 29045 ft 450 kts 153°
2026-05-09 08:03 43.58987 27.73507 29363 ft 450 kts 153°
2026-05-09 08:03 43.56237 27.75434 29658 ft 449 kts 153°
2026-05-09 08:03 43.53474 27.77371 29967 ft 448 kts 153°
2026-05-09 08:03 43.50677 27.79332 30250 ft 447 kts 153°
2026-05-09 08:04 43.47909 27.81270 30519 ft 446 kts 153°
2026-05-09 08:04 43.45134 27.83211 30787 ft 445 kts 153°
2026-05-09 08:04 43.42389 27.85131 31058 ft 444 kts 153°
2026-05-09 08:04 43.39639 27.87056 31329 ft 442 kts 153°
2026-05-09 08:05 43.36899 27.88970 31607 ft 441 kts 153°
2026-05-09 08:05 43.34164 27.90878 31892 ft 440 kts 153°
2026-05-09 08:05 43.31429 27.92780 32172 ft 438 kts 153°
2026-05-09 08:05 43.28717 27.94668 32454 ft 437 kts 152°
2026-05-09 08:06 43.26006 27.96554 32745 ft 435 kts 152°
2026-05-09 08:06 43.23308 27.98427 33056 ft 434 kts 152°
2026-05-09 08:06 43.20626 28.00285 33347 ft 432 kts 152°
2026-05-09 08:06 43.17942 28.02142 33638 ft 430 kts 152°
2026-05-09 08:07 43.15270 28.03988 33943 ft 429 kts 152°
2026-05-09 08:07 43.12639 28.05809 34214 ft 427 kts 152°
2026-05-09 08:07 43.10000 28.07635 34477 ft 425 kts 153°
2026-05-09 08:07 43.07345 28.09467 34744 ft 423 kts 153°
2026-05-09 08:08 43.04727 28.11271 34971 ft 422 kts 153°
2026-05-09 08:08 42.99422 28.14921 35053 ft 430 kts 153°
2026-05-09 08:09 42.94047 28.18608 35054 ft 438 kts 153°
2026-05-09 08:09 42.88560 28.22368 35053 ft 445 kts 153°
2026-05-09 08:10 42.83002 28.26176 35054 ft 451 kts 153°
2026-05-09 08:10 42.77332 28.30047 35055 ft 456 kts 154°
2026-05-09 08:11 42.71632 28.33928 35053 ft 460 kts 154°
2026-05-09 08:11 42.65858 28.37855 35055 ft 464 kts 154°
2026-05-09 08:12 42.57203 28.43729 35057 ft 466 kts 154°
2026-05-09 08:12 42.51392 28.47661 35055 ft 467 kts 154°
2026-05-09 08:13 42.45564 28.51590 35052 ft 468 kts 155°
2026-05-09 08:13 42.39711 28.55529 35053 ft 469 kts 155°
2026-05-09 08:14 42.33898 28.59431 35050 ft 469 kts 155°
2026-05-09 08:14 42.28061 28.63346 35052 ft 470 kts 155°
2026-05-09 08:15 42.22177 28.67287 35051 ft 471 kts 155°
2026-05-09 08:15 42.16348 28.71183 35050 ft 471 kts 155°
2026-05-09 08:16 42.10396 28.75041 35038 ft 471 kts 161°
2026-05-09 08:16 42.04059 28.76779 35039 ft 465 kts 181°
2026-05-09 08:17 41.97566 28.76970 35044 ft 466 kts 181°
2026-05-09 08:17 41.91095 28.77246 35044 ft 467 kts 180°
2026-05-09 08:18 41.84533 28.77533 35044 ft 468 kts 181°
2026-05-09 08:18 41.78156 28.77791 35048 ft 468 kts 181°
2026-05-09 08:19 41.71702 28.78038 35055 ft 470 kts 181°
2026-05-09 08:19 41.65188 28.78292 35054 ft 470 kts 181°
2026-05-09 08:20 41.58633 28.78550 35050 ft 469 kts 181°
2026-05-09 08:20 41.52075 28.78813 35049 ft 470 kts 181°
2026-05-09 08:21 41.49073 28.78925 35041 ft 470 kts 181°
2026-05-09 08:22 41.47067 28.79050 35040 ft 471 kts 180°
2026-05-09 08:22 41.44867 28.79195 35044 ft 471 kts 181°
2026-05-09 08:23 41.41146 28.79360 35031 ft 465 kts 182°
2026-05-09 08:23 41.37601 28.79458 35023 ft 463 kts 182°
2026-05-09 08:24 41.32843 28.79434 35020 ft 465 kts 184°
2026-05-09 08:24 41.25280 28.79693 35023 ft 469 kts 181°
2026-05-09 08:25 41.19807 28.80021 35025 ft 470 kts 181°
2026-05-09 08:25 41.13255 28.80373 35032 ft 471 kts 182°
2026-05-09 08:26 41.06738 28.80642 35060 ft 472 kts 182°
2026-05-09 08:26 41.00157 28.80946 35059 ft 474 kts 178°
2026-05-09 08:27 40.93743 28.83249 35059 ft 486 kts 158°
2026-05-09 08:27 40.87931 28.87846 35061 ft 490 kts 151°
2026-05-09 08:28 40.82150 28.92581 35076 ft 492 kts 152°
2026-05-09 08:28 40.77768 28.96143 35064 ft 492 kts 152°
2026-05-09 08:29 40.71985 29.00848 35073 ft 493 kts 152°
2026-05-09 08:29 40.66132 29.05630 35066 ft 494 kts 152°
2026-05-09 08:30 40.60311 29.10370 35075 ft 495 kts 152°
2026-05-09 08:30 40.54438 29.15127 35073 ft 496 kts 152°
2026-05-09 08:31 40.48526 29.19904 35081 ft 496 kts 152°
2026-05-09 08:31 40.42693 29.24795 35080 ft 498 kts 149°
2026-05-09 08:32 40.37006 29.29897 35077 ft 499 kts 149°
2026-05-09 08:33 40.28394 29.37607 35074 ft 500 kts 149°
2026-05-09 08:33 40.22603 29.42667 35072 ft 500 kts 150°
2026-05-09 08:34 40.16799 29.47721 35071 ft 501 kts 150°
2026-05-09 08:34 40.10999 29.52772 35077 ft 501 kts 150°
2026-05-09 08:35 40.05180 29.57835 35086 ft 502 kts 150°
2026-05-09 08:35 39.99371 29.62893 35102 ft 503 kts 150°
2026-05-09 08:36 39.93549 29.67948 35100 ft 503 kts 150°
2026-05-09 08:36 39.87588 29.72679 35111 ft 498 kts 160°
2026-05-09 08:37 39.81232 29.76261 35110 ft 498 kts 161°
2026-05-09 08:37 39.74900 29.79816 35112 ft 498 kts 161°
2026-05-09 08:38 39.68539 29.83404 35111 ft 499 kts 161°
2026-05-09 08:38 39.62166 29.86998 35114 ft 499 kts 161°
2026-05-09 08:39 39.55784 29.90580 35123 ft 500 kts 161°
2026-05-09 08:39 39.49392 29.94157 35127 ft 500 kts 161°
2026-05-09 08:40 39.42999 29.97759 35133 ft 501 kts 161°
2026-05-09 08:40 39.36604 30.01386 35136 ft 501 kts 161°
2026-05-09 08:41 39.30211 30.05000 35143 ft 501 kts 161°
2026-05-09 08:41 39.23849 30.08584 35141 ft 502 kts 161°
2026-05-09 08:42 39.17441 30.12165 35137 ft 502 kts 161°
2026-05-09 08:42 39.11044 30.15730 35150 ft 502 kts 161°
2026-05-09 08:43 39.04623 30.19331 35145 ft 502 kts 161°
2026-05-09 08:43 38.98236 30.22915 35160 ft 503 kts 161°
2026-05-09 08:44 38.91768 30.26536 35159 ft 503 kts 161°
2026-05-09 08:44 38.85352 30.30113 35161 ft 503 kts 161°
2026-05-09 08:45 38.78967 30.33664 35162 ft 503 kts 161°
2026-05-09 08:45 38.72574 30.37216 35167 ft 503 kts 161°
2026-05-09 08:46 38.66110 30.40807 35171 ft 504 kts 161°
2026-05-09 08:46 38.59664 30.44374 35172 ft 504 kts 161°
2026-05-09 08:47 38.53224 30.47932 35178 ft 503 kts 161°
2026-05-09 08:47 38.46794 30.51487 35177 ft 503 kts 161°
2026-05-09 08:48 38.40370 30.55025 35184 ft 503 kts 162°
2026-05-09 08:48 38.33939 30.58544 35182 ft 502 kts 162°
2026-05-09 08:49 38.27490 30.61612 35180 ft 493 kts 173°
2026-05-09 08:49 38.20699 30.62737 35190 ft 486 kts 180°
2026-05-09 08:50 38.13995 30.63607 35188 ft 486 kts 180°
2026-05-09 08:50 38.07271 30.64502 35191 ft 487 kts 180°
2026-05-09 08:51 38.00532 30.65389 35186 ft 486 kts 180°
2026-05-09 08:51 37.93783 30.66298 35189 ft 487 kts 180°
2026-05-09 08:52 37.87040 30.67280 35190 ft 487 kts 180°
2026-05-09 08:52 37.80307 30.68170 35192 ft 486 kts 180°
2026-05-09 08:53 37.73582 30.68970 35193 ft 486 kts 181°
2026-05-09 08:53 37.66853 30.69766 35186 ft 485 kts 180°
2026-05-09 08:54 37.60135 30.70594 35173 ft 485 kts 180°
2026-05-09 08:54 37.53421 30.71482 35160 ft 486 kts 179°
2026-05-09 08:55 37.46694 30.72492 35164 ft 486 kts 179°
2026-05-09 08:55 37.39988 30.73507 35161 ft 484 kts 179°
2026-05-09 08:56 37.33326 30.74377 35155 ft 483 kts 180°
2026-05-09 08:56 37.26644 30.75160 35133 ft 482 kts 180°
2026-05-09 08:57 37.19953 30.75960 35119 ft 482 kts 180°
2026-05-09 08:57 37.13280 30.76791 35117 ft 482 kts 180°
2026-05-09 08:58 37.06608 30.77639 35104 ft 481 kts 180°
2026-05-09 08:58 36.99937 30.78475 35096 ft 481 kts 180°
2026-05-09 08:59 36.93331 30.79282 35095 ft 480 kts 180°
2026-05-09 08:59 36.86685 30.79850 35092 ft 477 kts 184°
2026-05-09 09:00 36.80067 30.79993 35093 ft 475 kts 185°
2026-05-09 09:00 36.73453 30.80071 35094 ft 475 kts 185°
2026-05-09 09:01 36.66831 30.80266 35092 ft 476 kts 184°
2026-05-09 09:01 36.60204 30.80530 35097 ft 476 kts 184°
2026-05-09 09:02 36.53589 30.80778 35109 ft 476 kts 184°
2026-05-09 09:02 36.46959 30.81009 35108 ft 476 kts 184°
2026-05-09 09:03 36.40354 30.81234 35105 ft 476 kts 184°
2026-05-09 09:03 36.34855 30.81422 35103 ft 475 kts 184°
2026-05-09 09:04 36.28243 30.81639 35102 ft 476 kts 184°
2026-05-09 09:04 36.21619 30.81854 35100 ft 476 kts 184°
2026-05-09 09:05 36.15003 30.82082 35099 ft 476 kts 184°
2026-05-09 09:05 36.08367 30.82307 35106 ft 476 kts 184°
2026-05-09 09:06 36.01745 30.82542 35107 ft 476 kts 184°
2026-05-09 09:06 35.95119 30.82920 35104 ft 477 kts 182°
2026-05-09 09:07 35.88508 30.83373 35103 ft 478 kts 182°
2026-05-09 09:07 35.81828 30.83796 35097 ft 478 kts 183°
2026-05-09 09:08 35.75197 30.84195 35091 ft 478 kts 183°
2026-05-09 09:08 35.68584 30.84579 35094 ft 478 kts 183°
2026-05-09 09:09 35.61892 30.84973 35091 ft 479 kts 183°
2026-05-09 09:09 35.55239 30.85284 35089 ft 478 kts 184°
2026-05-09 09:10 35.48590 30.85472 35093 ft 478 kts 185°
2026-05-09 09:10 35.41935 30.85654 35098 ft 479 kts 185°
2026-05-09 09:11 35.35304 30.85877 35101 ft 479 kts 184°
2026-05-09 09:11 35.28643 30.86116 35103 ft 479 kts 184°
2026-05-09 09:12 35.21987 30.86343 35104 ft 480 kts 184°
2026-05-09 09:12 35.15269 30.86556 35112 ft 480 kts 184°
2026-05-09 09:13 35.08627 30.86768 35111 ft 480 kts 184°
2026-05-09 09:13 35.01908 30.87002 35116 ft 480 kts 184°
2026-05-09 09:14 34.95263 30.87232 35112 ft 481 kts 184°
2026-05-09 09:14 34.88572 30.87448 35119 ft 481 kts 184°
2026-05-09 09:15 34.81886 30.87660 35119 ft 481 kts 184°
2026-05-09 09:15 34.75199 30.87885 35119 ft 481 kts 184°
2026-05-09 09:16 34.68488 30.88116 35114 ft 481 kts 184°
2026-05-09 09:16 34.58443 30.88455 35112 ft 482 kts 184°
2026-05-09 09:17 34.51737 30.88781 35117 ft 483 kts 183°
2026-05-09 09:17 34.45017 30.89147 35126 ft 483 kts 183°
2026-05-09 09:18 34.38290 30.89489 35127 ft 483 kts 184°
2026-05-09 09:18 34.31594 30.89813 35128 ft 483 kts 184°
2026-05-09 09:19 34.24894 30.90140 35126 ft 483 kts 183°
2026-05-09 09:19 34.18157 30.90488 35129 ft 484 kts 183°
2026-05-09 09:20 34.11402 30.90871 35128 ft 484 kts 183°
2026-05-09 09:20 34.04703 30.91247 35134 ft 484 kts 183°
2026-05-09 09:21 33.97991 30.91624 35130 ft 484 kts 183°
2026-05-09 09:21 33.91251 30.91975 35133 ft 483 kts 184°
2026-05-09 09:22 33.84530 30.92228 35137 ft 483 kts 184°
2026-05-09 09:22 33.77822 30.92453 35138 ft 482 kts 184°
2026-05-09 09:23 33.71107 30.92690 35135 ft 482 kts 184°
2026-05-09 09:23 33.64381 30.92947 35138 ft 482 kts 184°
2026-05-09 09:24 33.57721 30.93210 35136 ft 482 kts 184°
2026-05-09 09:24 33.51015 30.93468 35135 ft 482 kts 184°
2026-05-09 09:25 33.44315 30.93722 35138 ft 482 kts 184°
2026-05-09 09:25 33.37619 30.93974 35139 ft 482 kts 184°
2026-05-09 09:26 33.30921 30.94225 35145 ft 481 kts 184°
2026-05-09 09:26 33.24198 30.94475 35138 ft 481 kts 184°
2026-05-09 09:27 33.17520 30.94722 35143 ft 481 kts 184°
2026-05-09 09:27 33.10862 30.94972 35146 ft 481 kts 184°
2026-05-09 09:28 33.04142 30.95464 35151 ft 483 kts 180°
2026-05-09 09:28 32.97438 30.96307 35148 ft 484 kts 179°
2026-05-09 09:29 32.90735 30.97182 35145 ft 483 kts 179°
2026-05-09 09:29 32.84038 30.97954 35145 ft 483 kts 180°
2026-05-09 09:30 32.77341 30.98667 35150 ft 482 kts 180°
2026-05-09 09:30 32.70674 30.99389 35149 ft 482 kts 180°
2026-05-09 09:31 32.64019 31.00122 35145 ft 481 kts 180°
2026-05-09 09:32 32.54024 31.01241 35144 ft 481 kts 179°
2026-05-09 09:32 32.47365 31.01982 35145 ft 480 kts 179°
2026-05-09 09:33 32.40722 31.02714 35144 ft 479 kts 179°
2026-05-09 09:33 32.34074 31.03451 35145 ft 479 kts 179°
2026-05-09 09:34 32.27448 31.04182 35144 ft 478 kts 179°
2026-05-09 09:34 32.20828 31.04911 35144 ft 477 kts 179°
2026-05-09 09:36 31.94461 31.07786 35140 ft 474 kts 180°
2026-05-09 09:37 31.87874 31.08489 35142 ft 474 kts 180°
2026-05-09 09:37 31.81297 31.09195 35142 ft 474 kts 180°
2026-05-09 09:38 31.74736 31.09902 35141 ft 473 kts 180°
2026-05-09 09:38 31.68223 31.10598 35138 ft 473 kts 180°
2026-05-09 09:39 31.61674 31.11305 35135 ft 472 kts 180°
2026-05-09 09:39 31.55106 31.12261 35132 ft 478 kts 171°
2026-05-09 09:39 31.51966 31.13514 35131 ft 486 kts 160°
2026-05-09 09:40 31.48962 31.15488 35130 ft 493 kts 150°
2026-05-09 09:40 31.43412 31.20112 35128 ft 494 kts 149°
2026-05-09 09:41 31.37751 31.24799 35130 ft 494 kts 149°
2026-05-09 09:41 31.32136 31.29431 35119 ft 494 kts 149°
2026-05-09 09:42 31.26511 31.34069 35117 ft 493 kts 149°
2026-05-09 09:42 31.21834 31.37929 35117 ft 493 kts 149°
2026-05-09 09:43 31.16226 31.42548 35115 ft 492 kts 149°
2026-05-09 09:43 31.10647 31.47126 35104 ft 492 kts 149°
2026-05-09 09:44 31.05060 31.51711 35101 ft 492 kts 149°
2026-05-09 09:44 30.99464 31.56299 35099 ft 492 kts 149°
2026-05-09 09:45 30.93856 31.60894 35097 ft 491 kts 149°
2026-05-09 09:45 30.88260 31.65460 35096 ft 491 kts 149°
2026-05-09 09:46 30.82659 31.70023 35094 ft 492 kts 149°
2026-05-09 09:46 30.77056 31.74595 35093 ft 492 kts 149°
2026-05-09 09:47 30.71460 31.79153 35093 ft 492 kts 149°
2026-05-09 09:47 30.65854 31.83703 35089 ft 491 kts 149°
2026-05-09 09:48 30.60235 31.88261 35092 ft 491 kts 149°
2026-05-09 09:48 30.54657 31.92780 35095 ft 492 kts 149°
2026-05-09 09:49 30.49038 31.97319 35101 ft 492 kts 149°
2026-05-09 09:49 30.43415 32.01855 35100 ft 492 kts 149°
2026-05-09 09:50 30.37813 32.06378 35099 ft 491 kts 149°
2026-05-09 09:50 30.32197 32.10908 35100 ft 490 kts 149°
2026-05-09 09:51 30.26604 32.15409 35096 ft 490 kts 149°
2026-05-09 09:51 30.21007 32.19904 35095 ft 489 kts 149°
2026-05-09 09:52 30.15402 32.24392 35097 ft 489 kts 149°
2026-05-09 09:52 30.09819 32.28863 35094 ft 489 kts 149°
2026-05-09 09:53 30.04254 32.33325 35098 ft 489 kts 149°
2026-05-09 09:53 29.98670 32.37782 35093 ft 488 kts 149°
2026-05-09 09:54 29.94930 32.40757 35100 ft 488 kts 149°
2026-05-09 09:54 29.92970 32.42313 35242 ft 483 kts 150°
2026-05-09 09:55 29.90202 32.44514 35047 ft 483 kts 149°
2026-05-09 09:55 29.84692 32.48909 35038 ft 482 kts 149°
2026-05-09 09:56 29.79154 32.53314 35039 ft 484 kts 149°
2026-05-09 09:56 29.73605 32.57717 35041 ft 485 kts 149°
2026-05-09 09:57 29.68042 32.62131 35040 ft 486 kts 149°
2026-05-09 09:57 29.62479 32.66546 35047 ft 487 kts 147°
2026-05-09 09:58 29.57639 32.72069 35051 ft 496 kts 130°
2026-05-09 09:58 29.53512 32.78379 35050 ft 496 kts 130°
2026-05-09 09:59 29.49353 32.84705 35048 ft 496 kts 130°
2026-05-09 09:59 29.45193 32.91027 35046 ft 497 kts 130°
2026-05-09 10:00 29.41032 32.97344 35044 ft 497 kts 130°
2026-05-09 10:00 29.36854 33.03671 35045 ft 497 kts 130°
2026-05-09 10:01 29.32675 33.09973 35023 ft 497 kts 130°
2026-05-09 10:01 29.28495 33.16288 35029 ft 497 kts 130°
2026-05-09 10:02 29.24311 33.22613 35021 ft 497 kts 130°
2026-05-09 10:02 29.20124 33.28918 35016 ft 497 kts 130°
2026-05-09 10:03 29.15929 33.35219 35018 ft 498 kts 130°
2026-05-09 10:03 29.11734 33.41518 35016 ft 498 kts 130°
2026-05-09 10:04 29.07543 33.47803 35016 ft 499 kts 130°
2026-05-09 10:04 29.03327 33.54113 34764 ft 501 kts 130°
2026-05-09 10:04 29.01212 33.57270 34280 ft 500 kts 130°
2026-05-09 10:05 28.99093 33.60432 33787 ft 501 kts 130°
2026-05-09 10:05 28.96969 33.63602 33258 ft 502 kts 130°
2026-05-09 10:05 28.94848 33.66763 32742 ft 503 kts 129°
2026-05-09 10:05 28.92723 33.69932 32232 ft 503 kts 129°
2026-05-09 10:06 28.90585 33.73118 31721 ft 504 kts 129°
2026-05-09 10:06 28.88447 33.76300 30902 ft 503 kts 129°
2026-05-09 10:06 28.86312 33.79473 29959 ft 503 kts 129°
2026-05-09 10:06 28.83968 33.82412 28900 ft 502 kts 139°
2026-05-09 10:07 28.81292 33.84986 27878 ft 504 kts 142°
2026-05-09 10:07 28.78590 33.87531 26904 ft 506 kts 142°
2026-05-09 10:07 28.75866 33.90091 25953 ft 507 kts 142°
2026-05-09 10:07 28.73157 33.92637 25029 ft 502 kts 142°
2026-05-09 10:08 28.70478 33.95155 24143 ft 496 kts 142°
2026-05-09 10:08 28.67826 33.97648 23215 ft 491 kts 142°
2026-05-09 10:08 28.65217 34.00101 22206 ft 484 kts 141°
2026-05-09 10:08 28.62642 34.02522 21232 ft 477 kts 141°
2026-05-09 10:09 28.60100 34.04909 20282 ft 470 kts 141°
2026-05-09 10:09 28.57591 34.07266 19369 ft 464 kts 141°
2026-05-09 10:09 28.55134 34.09572 18462 ft 452 kts 141°
2026-05-09 10:09 28.52734 34.11822 17495 ft 439 kts 141°
2026-05-09 10:10 28.50390 34.13963 16510 ft 427 kts 146°
2026-05-09 10:10 28.47800 34.15526 15559 ft 417 kts 161°
2026-05-09 10:10 28.45032 34.16240 14986 ft 396 kts 176°
2026-05-09 10:10 28.42374 34.16195 14737 ft 369 kts 189°
2026-05-09 10:11 28.39960 34.15551 14502 ft 348 kts 200°
2026-05-09 10:11 28.37708 34.14709 14268 ft 342 kts 200°
2026-05-09 10:11 28.35466 34.13860 14032 ft 340 kts 200°
2026-05-09 10:11 28.33230 34.13006 13811 ft 338 kts 200°
2026-05-09 10:12 28.31012 34.12154 13558 ft 337 kts 200°
2026-05-09 10:12 28.28778 34.11296 13301 ft 336 kts 200°
2026-05-09 10:12 28.26573 34.10454 13051 ft 334 kts 200°
2026-05-09 10:12 28.24360 34.09614 12796 ft 334 kts 199°
2026-05-09 10:13 28.22168 34.08784 12535 ft 332 kts 199°
2026-05-09 10:13 28.20068 34.07990 12199 ft 329 kts 199°
2026-05-09 10:13 28.17888 34.07165 11851 ft 326 kts 199°
2026-05-09 10:13 28.15749 34.06353 11515 ft 323 kts 199°
2026-05-09 10:14 28.13623 34.05545 11173 ft 319 kts 199°
2026-05-09 10:14 28.11536 34.04752 10842 ft 316 kts 199°
2026-05-09 10:14 28.09447 34.03956 10506 ft 314 kts 199°
2026-05-09 10:14 28.07377 34.03168 10184 ft 311 kts 198°
2026-05-09 10:15 28.05329 34.02390 9855 ft 309 kts 198°
2026-05-09 10:15 28.03300 34.01619 9503 ft 306 kts 198°
2026-05-09 10:15 28.01299 34.00862 9155 ft 299 kts 198°
2026-05-09 10:15 27.99338 34.00121 8796 ft 294 kts 198°
2026-05-09 10:16 27.97421 33.99399 8456 ft 292 kts 198°
2026-05-09 10:16 27.95472 33.98665 8090 ft 290 kts 198°
2026-05-09 10:16 27.93553 33.98236 7639 ft 282 kts 180°
2026-05-09 10:16 27.91649 33.98510 7185 ft 271 kts 162°
2026-05-09 10:17 27.89956 33.99430 6734 ft 263 kts 144°
2026-05-09 10:17 27.88661 34.00795 6336 ft 255 kts 129°
2026-05-09 10:17 27.87537 34.02313 5870 ft 251 kts 130°
2026-05-09 10:17 27.86416 34.03812 5406 ft 248 kts 130°
2026-05-09 10:18 27.85307 34.05291 4954 ft 246 kts 130°
2026-05-09 10:18 27.84200 34.06763 4490 ft 244 kts 129°
2026-05-09 10:18 27.83114 34.08209 4061 ft 240 kts 129°
2026-05-09 10:18 27.82053 34.09621 3964 ft 228 kts 129°
2026-05-09 10:19 27.81060 34.10943 3972 ft 212 kts 129°
2026-05-09 10:19 27.80137 34.12173 4020 ft 199 kts 129°
2026-05-09 10:19 27.79253 34.13353 3972 ft 195 kts 129°
2026-05-09 10:19 27.78394 34.14517 3975 ft 189 kts 124°
2026-05-09 10:20 27.77863 34.15800 3983 ft 175 kts 103°
2026-05-09 10:20 27.77779 34.17147 3980 ft 172 kts 83°
2026-05-09 10:20 27.78111 34.18433 3979 ft 171 kts 63°
2026-05-09 10:20 27.78796 34.19485 3984 ft 164 kts 44°
2026-05-09 10:21 27.79618 34.20340 3967 ft 160 kts 43°
2026-05-09 10:21 27.80443 34.21194 3967 ft 160 kts 43°
2026-05-09 10:21 27.81264 34.22046 3961 ft 161 kts 43°
2026-05-09 10:21 27.82089 34.22902 3850 ft 161 kts 42°
2026-05-09 10:22 27.82905 34.23750 3677 ft 159 kts 42°
2026-05-09 10:22 27.83447 34.24313 3543 ft 158 kts 42°
2026-05-09 10:22 27.84256 34.25153 3355 ft 158 kts 42°
2026-05-09 10:22 27.85063 34.25992 3150 ft 157 kts 42°
2026-05-09 10:23 27.85864 34.26825 2955 ft 157 kts 41°
2026-05-09 10:23 27.86667 34.27659 2747 ft 155 kts 41°
2026-05-09 10:23 27.87462 34.28486 2544 ft 154 kts 41°
2026-05-09 10:23 27.88256 34.29312 2355 ft 155 kts 41°
2026-05-09 10:24 27.89049 34.30137 2153 ft 154 kts 41°
2026-05-09 10:24 27.89840 34.30960 1953 ft 154 kts 41°
2026-05-09 10:24 27.90636 34.31788 1758 ft 154 kts 41°
2026-05-09 10:24 27.91429 34.32614 1577 ft 154 kts 40°
2026-05-09 10:25 27.92214 34.33431 1357 ft 153 kts 41°
2026-05-09 10:25 27.92998 34.34247 1171 ft 152 kts 40°
2026-05-09 10:25 27.93773 34.35055 1010 ft 156 kts 38°
2026-05-09 10:25 27.94571 34.35886 806 ft 153 kts 41°
2026-05-09 10:26 27.95347 34.36695 592 ft 152 kts 40°
2026-05-09 10:26 27.96109 34.37496 361 ft 148 kts 40°
2026-05-09 10:26 27.96856 34.38286 177 ft 146 kts 38°
2026-05-09 10:26 27.97538 34.38975 137 ft 101 kts 43°
2026-05-09 10:27 27.97831 34.39286 135 ft 21 kts 44°
2026-05-09 10:27 27.97894 34.39340 135 ft 10 kts 20°
2026-05-09 10:27 27.97960 34.39303 135 ft 12 kts 311°
2026-05-09 10:27 27.98020 34.39225 134 ft 14 kts 314°
2026-05-09 10:28 27.98040 34.39202 134 ft 1 kts 314°
2026-05-09 10:28 27.98050 34.39190 134 ft 5 kts 313°
2026-05-09 10:28 27.98078 34.39139 134 ft 11 kts 269°
2026-05-09 10:28 27.98023 34.39069 134 ft 10 kts 219°
2026-05-09 10:29 27.97982 34.39030 134 ft 6 kts 223°
2026-05-09 10:29 27.97960 34.39004 134 ft 4 kts 233°